KUIPER-00129

导读

KUIPER-00151是美国亚马逊“柯伊伯计划”(Project Kuiper)中的一颗近地轨道互联网卫星,于2025年9月25日由联合发射联盟(ULA)发射,隶属于亚马逊打造的全球低轨卫星互联网星座。 本次发射共有27颗柯伊伯卫星入轨,发射完成后星座规模达到129颗,该卫星入轨后将先运行于465公里轨道,后续会提升至预定轨道,助力亚马逊实现2026年7月前完成一半星座部署的目标。柯伊伯计划计划部署超过3200颗卫星,为全球提供高速卫星互联网接入服务。

基本信息
目录编号:
65771
目录名称:
KUIPER-00151
国际标识:
2025-217K
轨道中心:
EARTH
卫星名称:
KUIPER-00151
卫星全名:
KUIPER-00129
卫星状态:
在轨 (已飞行305 天)
发射日期:
2025-09-25 UTC
国别 :
美国 (US)
星等 :
--
轨道信息
数据来源 国际轨道数据 AOE轨道数据
星历时间 2026-07-27T08:44:44+0800
22小时前
查看轨道信息
2026-07-26T01:00:00+0800
2天前
查看轨道信息
半长轴 7007.689km 7007.607km
偏心率 0.000097 0.0000915
轨道倾角 51.899° 51.900°
近地点辐角 79.768° 59.059°
升交点赤经 146.950° 152.800°
平近点角 280.339° 89.581°
近地点 628.872km 628.828km
远地点 630.232km 630.112km
周期 97.302分钟 97.300分钟
每日圈数 14.799279 14.799541
详细信息
使用方式:
暂无
2D轨道图
3D轨道图
轨道高度分析图
轨道倾角分析图
轨道综合分析图
查看轨道综合分析图